Location: Blue Sky Observatory
(43.1153°N, 70.9036°W)
Time: 16:20:26
(UTC-04:00)

Amateur Radio Satellites - All Passes

Search period start: 01 September 2015 15:50
Search period end: 02 September 2015 15:50
Location: Blue Sky Observatory, 43.1153°N, 70.9036°W

Satellite Date Start Highest point End Downlink Frequencies (MHz)
Time Altitude Azimuth
BEESAT 01 Sep 15:51:55 15:55:42 23° 295° (WNW) 15:59:23 436.000
AO-7 01 Sep 16:10:55 16:19:11 63° 256° (WSW) 16:27:28 29.400- 29.500
GONETS M04 01 Sep 16:13:35 16:19:17 18° 282° (WNW) 16:24:32
SWISSCUBE 01 Sep 16:19:20 16:21:31 13° 299° (WNW) 16:23:29 437.505
BEESAT 3 01 Sep 16:28:21 16:31:21 19° 319° (NW) 16:34:16 437.485
STARS 01 Sep 16:29:59 16:34:28 76° 285° (WNW) 16:38:53 437.465
Cosmos 2499 01 Sep 16:33:25 16:41:34 46° 272° (W) 16:49:06 435.465 / 435.565
BEESAT 2 01 Sep 16:41:33 16:44:33 19° 319° (NW) 16:47:29 435.950
Cubesat XI-IV 01 Sep 16:44:32 16:47:41 17° 61° (ENE) 16:51:01 437.490
KKS-1 01 Sep 16:50:58 16:54:52 29° 292° (WNW) 16:58:42 437.445
HORYU 2 01 Sep 17:02:47 17:05:54 18° 269° (W) 17:08:54 437.375
MOZHAYETS 4 01 Sep 17:08:03 17:12:37 69° 101° (ESE) 17:17:09
AIST 2 01 Sep 17:21:56 17:25:43 30° 314° (NW) 17:29:29 435.215
CUTE-I 01 Sep 17:27:17 17:32:05 37° 68° (ENE) 17:36:58 437.470
CUBESAT XI-V 01 Sep 17:30:06 17:30:31 10° 86° (E) 17:31:15 437.345
RS-15 01 Sep 17:49:02 17:59:48 55° 316° (NW) 18:11:01 29.354- 29.394
AIST 1 01 Sep 17:52:11 17:53:27 11° 65° (ENE) 17:54:57
BRITE-PL 01 Sep 17:58:18 17:59:12 11° 58° (ENE) 18:00:21 437.365/2234.400
AO-7 01 Sep 18:11:33 18:13:56 11° 278° (W) 18:15:32 29.400- 29.500
O/OREOS (USA 219) 01 Sep 18:15:15 18:18:57 26° 103° (ESE) 18:22:44 437.305
Cubesat XI-IV 01 Sep 18:21:55 18:27:14 74° 256° (WSW) 18:32:35 437.490
GOMX 1 01 Sep 18:22:26 18:23:58 12° 59° (ENE) 18:25:48 467.674
Cosmos 2491 01 Sep 18:29:27 18:35:31 21° 60° (ENE) 18:41:57 435.465 / 435.565
HO-68 01 Sep 18:35:08 18:39:42 19° 54° (NE) 18:44:31 435.675
MOZHAYETS 4 01 Sep 18:46:59 18:49:20 14° 297° (WNW) 18:51:29
CUBESAT XI-V 01 Sep 19:04:00 19:08:40 83° 286° (WNW) 19:13:20 437.345
CUTE-I 01 Sep 19:07:36 19:12:15 30° 265° (W) 19:16:51 437.470
PRISM 01 Sep 19:09:22 19:12:06 18° 92° (E) 19:14:59 437.425
CANX-2 01 Sep 19:12:06 19:14:31 15° 65° (ENE) 19:17:06 2200.000
CINEMA 3 01 Sep 19:12:19 19:12:57 10° 58° (ENE) 19:13:51 145.822/145.860
STRAND 1 01 Sep 19:13:56 19:18:29 32° 96° (E) 19:23:05 437.568
AIST 1 01 Sep 19:27:23 19:31:42 69° 264° (W) 19:36:01
SEEDS 01 Sep 19:31:38 19:34:23 17° 66° (ENE) 19:37:15 437.485
BRITE-PL 01 Sep 19:32:32 19:36:55 90° 94° (E) 19:41:42 437.365/2234.400
COMPASS 1 01 Sep 19:51:33 19:54:44 22° 68° (ENE) 19:58:00 437.405
O/OREOS (USA 219) 01 Sep 19:54:05 19:58:14 34° 301° (WNW) 20:02:25 437.305
GOMX 1 01 Sep 19:56:48 20:01:19 88° 258° (WSW) 20:06:15 467.674
AAUSAT CUBESAT 2 01 Sep 20:00:51 20:04:07 23° 68° (ENE) 20:07:28 437.432
DOVE 4 01 Sep 20:05:53 20:10:30 71° 74° (ENE) 20:15:27 437.250
RS-15 01 Sep 20:06:31 20:15:37 26° 348° (NNW) 20:24:57 29.354- 29.394
HO-68 01 Sep 20:19:23 20:26:33 86° 73° (ENE) 20:33:48 435.675
DELFI C3 01 Sep 20:20:56 20:21:53 11° 63° (ENE) 20:23:02 145.870
Cosmos 2491 01 Sep 20:25:00 20:33:49 89° 257° (WSW) 20:42:37 435.465 / 435.565
ZACube-1 01 Sep 20:27:18 20:29:54 16° 64° (ENE) 20:32:41 437.345
CUBEBUG 2 01 Sep 20:29:48 20:33:40 27° 67° (ENE) 20:37:41 437.445
CUTE 1.7 + AOD 2 01 Sep 20:31:33 20:35:51 87° 257° (WSW) 20:40:09 437.475
FUNcube-1 01 Sep 20:32:02 20:34:50 17° 64° (ENE) 20:37:48 145.935
YUBILEINY 01 Sep 20:33:09 20:41:19 47° 89° (E) 20:49:38 435.215
UWE-3 01 Sep 20:35:05 20:38:43 24° 67° (ENE) 20:42:30 435.000/436.395/437.385
PRISM 01 Sep 20:43:53 20:47:44 39° 289° (WNW) 20:51:34 437.425
CINEMA 3 01 Sep 20:44:36 20:49:19 78° 75° (ENE) 20:54:15 145.822/145.860
CUBESAT XI-V 01 Sep 20:45:04 20:45:25 10° 300° (WNW) 20:45:31 437.345
CANX-2 01 Sep 20:45:51 20:50:03 54° 260° (W) 20:54:16 2200.000
STRAND 1 01 Sep 20:53:08 20:57:41 32° 293° (WNW) 21:02:09 437.568
HUMSAT D 01 Sep 21:04:51 21:07:06 14° 64° (ENE) 21:09:31 437.325/437.525
SEEDS 01 Sep 21:05:46 21:09:51 45° 262° (W) 21:13:57 437.485
DX 1 01 Sep 21:13:44 21:14:42 11° 61° (ENE) 21:15:53 434.975-435.025
Oscar 11 01 Sep 21:16:15 21:20:34 69° 75° (ENE) 21:24:54 145.826/435.025
UKube-1 01 Sep 21:23:57 21:25:42 13° 62° (ENE) 21:27:38 .
COMPASS 1 01 Sep 21:26:21 21:30:13 34° 264° (W) 21:34:04 437.405
AAUSAT CUBESAT 2 01 Sep 21:35:48 21:39:35 32° 264° (W) 21:43:19 437.432
AISAT 01 Sep 21:38:36 21:40:38 13° 62° (ENE) 21:42:52 437.250
DOVE 4 01 Sep 21:46:44 21:48:58 13° 275° (W) 21:51:00 437.250
DELFI C3 01 Sep 21:52:23 21:56:25 72° 258° (WSW) 22:00:28 145.870
ZACube-1 01 Sep 22:01:17 22:05:47 62° 260° (W) 22:10:23 437.345
VELOX 1 01 Sep 22:04:56 22:08:21 23° 67° (ENE) 22:11:53 145.980
CUBEBUG 2 01 Sep 22:05:57 22:10:13 34° 265° (W) 22:14:33 437.445
FUNcube-1 01 Sep 22:06:15 22:10:44 56° 261° (W) 22:15:16 145.935
HO-68 01 Sep 22:10:34 22:15:18 18° 273° (W) 22:19:41 435.675
UWE-3 01 Sep 22:10:43 22:15:02 38° 263° (W) 22:19:25 435.000/436.395/437.385
TIGRISAT 01 Sep 22:18:48 22:21:42 17° 89° (E) 22:24:42 435.000
Cosmos 2504 01 Sep 22:20:20 22:27:06 31° 84° (E) 22:34:22 435.465 / 435.565
RS-15 01 Sep 22:23:10 22:32:55 30° 22° (NNE) 22:43:11 29.354- 29.394
Cosmos 2491 01 Sep 22:23:55 22:29:35 18° 281° (WNW) 22:34:47 435.465 / 435.565
50 SAT 01 Sep 22:24:14 22:27:56 39° 72° (ENE) 22:31:40 437.505
CINEMA 3 01 Sep 22:25:20 22:27:14 12° 275° (W) 22:28:53 145.822/145.860
YUBILEINY 01 Sep 22:30:05 22:38:18 41° 289° (WNW) 22:46:30 435.215
ANTELSAT 01 Sep 22:35:40 22:39:29 26° 93° (E) 22:43:17 437.575/2403.000
HUMSAT D 01 Sep 22:38:06 22:42:23 60° 260° (W) 22:46:41 437.325/437.525
AUBIESAT-1 01 Sep 22:39:31 22:40:48 12° 92° (E) 22:42:14 437.475
M-CUBED/EXP-1 PRIME 01 Sep 22:44:53 22:47:24 17° 95° (E) 22:49:54 437.505
DX 1 01 Sep 22:46:00 22:50:20 84° 256° (WSW) 22:54:43 434.975-435.025
POLYITAN 1 01 Sep 22:48:48 22:50:36 13° 88° (E) 22:52:38 437.675
DUCHIFAT 1 01 Sep 22:50:36 22:52:16 12° 88° (E) 22:54:09 145.980
POPSAT HIP 1 01 Sep 22:50:53 22:52:48 13° 88° (E) 22:54:55 437.405
CUSAT 1 01 Sep 22:54:00 22:56:00 13° 80° (E) 22:58:29 437.405
Oscar 11 01 Sep 22:55:48 22:57:18 11° 273° (W) 22:58:32 145.826/435.025
UKube-1 01 Sep 22:57:01 23:01:18 70° 258° (WSW) 23:05:38 .
SPROUT 01 Sep 23:02:36 23:05:26 18° 65° (ENE) 23:08:26 437.525
ESTCUBE 1 01 Sep 23:02:52 23:07:20 69° 74° (ENE) 23:11:48 437.505/2401.250
BEESAT 3 01 Sep 23:06:37 23:10:31 45° 51° (NE) 23:14:22 437.485
QB50P2 01 Sep 23:07:07 23:10:18 20° 92° (E) 23:13:35 145.880/145.840
NANOSAT C BR1 01 Sep 23:07:22 23:10:26 20° 92° (E) 23:13:38 145.865
CUBEBUG 1 01 Sep 23:09:40 23:13:57 66° 74° (ENE) 23:18:16 437.445
AISAT 01 Sep 23:12:18 23:16:42 68° 258° (WSW) 23:21:08 437.250
BEESAT 2 01 Sep 23:20:15 23:24:11 46° 51° (NE) 23:28:05 435.950
QB50P1 01 Sep 23:21:03 23:24:44 28° 95° (E) 23:28:28 145.935-145.965
UNISAT 6 01 Sep 23:26:05 23:30:42 89° 105° (ESE) 23:35:09 437.425
DANDE 01 Sep 23:29:12 23:31:29 16° 82° (E) 23:34:19 436.750
VELOX 1 01 Sep 23:40:41 23:44:44 35° 263° (W) 23:48:48 145.980
TIGRISAT 01 Sep 23:54:22 23:58:49 49° 288° (WNW) 00:03:06 435.000
50 SAT 02 Sep 00:00:03 00:02:39 16° 269° (W) 00:05:08 437.505
TISAT 1 02 Sep 00:01:01 00:04:58 41° 71° (ENE) 00:08:59 437.305
AIST 2 02 Sep 00:03:56 00:07:39 30° 46° (NE) 00:11:20 435.215
Cosmos 2504 02 Sep 00:10:45 00:18:50 60° 283° (WNW) 00:27:20 435.465 / 435.565
AUBIESAT-1 02 Sep 00:12:11 00:16:02 51° 293° (WNW) 00:19:34 437.475
ANTELSAT 02 Sep 00:12:13 00:16:18 32° 291° (WNW) 00:20:13 437.575/2403.000
SWISSCUBE 02 Sep 00:12:15 00:14:19 13° 61° (ENE) 00:16:37 437.505
M-CUBED/EXP-1 PRIME 02 Sep 00:18:44 00:22:28 37° 295° (WNW) 00:25:52 437.505
POLYITAN 1 02 Sep 00:22:42 00:26:59 60° 287° (WNW) 00:31:13 437.675
DUCHIFAT 1 02 Sep 00:24:17 00:28:33 62° 285° (WNW) 00:32:45 145.980
POPSAT HIP 1 02 Sep 00:24:52 00:29:07 59° 286° (WNW) 00:33:19 437.405
BUGSAT 1 02 Sep 00:26:56 00:31:13 89° 103° (ESE) 00:35:29 437.445
CUSAT 1 02 Sep 00:33:33 00:37:33 56° 286° (WNW) 00:42:55 437.405
RS-15 02 Sep 00:36:14 00:48:02 70° 51° (NE) 01:00:16 29.354- 29.394
SPROUT 02 Sep 00:37:05 00:41:13 45° 262° (W) 00:45:22 437.525
QB50P2 02 Sep 00:42:21 00:46:21 37° 289° (WNW) 00:50:16 145.880/145.840
NANOSAT C BR1 02 Sep 00:42:26 00:46:27 38° 289° (WNW) 00:50:24 145.865
ESTCUBE 1 02 Sep 00:42:56 00:44:45 12° 272° (W) 00:46:19 437.505/2401.250
BEESAT 3 02 Sep 00:45:20 00:48:07 18° 248° (WSW) 00:50:46 437.485
CUBEBUG 1 02 Sep 00:49:12 00:50:51 12° 272° (W) 00:52:15 437.445
ITUPSAT 1 02 Sep 00:49:15 00:53:08 26° 66° (ENE) 00:57:07 437.325
QB50P1 02 Sep 00:56:52 01:00:33 27° 291° (WNW) 01:04:09 145.935-145.965
BEESAT 2 02 Sep 00:59:10 01:01:54 17° 248° (WSW) 01:04:29 435.950
SO-50 02 Sep 01:02:26 01:07:12 72° 122° (ESE) 01:12:08 436.795
UNISAT 6 02 Sep 01:05:30 01:06:47 11° 300° (WNW) 01:07:50 437.425
PCSat 02 Sep 01:07:38 01:12:25 34° 111° (ESE) 01:17:18 145.827
DANDE 02 Sep 01:10:36 01:14:02 35° 291° (WNW) 01:18:30 436.750
BEESAT 02 Sep 01:20:51 01:25:27 53° 72° (ENE) 01:30:07 436.000
GONETS M04 02 Sep 01:23:14 01:29:09 22° 80° (E) 01:35:29
TISAT 1 02 Sep 01:38:02 01:40:58 18° 269° (W) 01:43:46 437.305
AIST 2 02 Sep 01:42:30 01:46:11 30° 245° (WSW) 01:49:45 435.215
SWISSCUBE 02 Sep 01:46:50 01:51:36 80° 257° (WSW) 01:56:24 437.505
STARS 02 Sep 01:54:21 01:55:59 12° 61° (ENE) 01:57:51 437.465
Oscar 19 02 Sep 02:08:01 02:13:12 64° 101° (ESE) 02:18:21 437.125/150
Cosmos 2504 02 Sep 02:09:43 02:13:24 13° 308° (NW) 02:16:35 435.465 / 435.565
KKS-1 02 Sep 02:13:29 02:17:20 30° 69° (ENE) 02:21:17 437.445
ITUPSAT 1 02 Sep 02:26:29 02:30:54 36° 263° (W) 02:35:17 437.325
SO-50 02 Sep 02:44:35 02:48:18 21° 322° (NW) 02:52:00 436.795
RS-15 02 Sep 02:49:22 02:59:57 38° 252° (WSW) 03:10:33 29.354- 29.394
PCSat 02 Sep 02:50:44 02:55:47 38° 309° (NW) 03:00:51 145.827
JAS-2 02 Sep 02:57:09 03:03:12 32° 91° (E) 03:08:44 435.910
Gurwin Techsat 1B 02 Sep 02:58:39 03:03:55 60° 101° (E) 03:09:10 435.225
BEESAT 02 Sep 03:00:27 03:03:41 17° 270° (W) 03:06:45 436.000
ITAMSAT 1 02 Sep 03:09:31 03:14:40 60° 101° (E) 03:19:48 435.822/435.867
GONETS M04 02 Sep 03:16:24 03:25:06 80° 279° (W) 03:33:53
Cosmos 2499 02 Sep 03:17:35 03:24:44 32° 84° (E) 03:32:20 435.465 / 435.565
STARS 02 Sep 03:27:27 03:31:52 77° 257° (WSW) 03:36:20 437.465
VERMONT LUNAR 02 Sep 03:45:15 03:47:55 30° 163° (SSE) 03:50:36 437.305
Oscar 19 02 Sep 03:48:33 03:52:06 18° 298° (WNW) 03:55:28 437.125/150
KKS-1 02 Sep 03:50:09 03:53:58 27° 265° (W) 03:57:46 437.445
MOZHAYETS 4 02 Sep 04:10:37 04:15:13 73° 74° (ENE) 04:19:50
AO-7 02 Sep 04:11:26 04:19:11 43° 98° (E) 04:26:59 29.400- 29.500
O/OREOS (USA 219) 02 Sep 04:23:21 04:27:55 59° 64° (ENE) 04:32:26 437.305
CUBESAT XI-V 02 Sep 04:34:02 04:35:52 13° 62° (ENE) 04:37:55 437.345
Gurwin Techsat 1B 02 Sep 04:39:39 04:43:29 20° 297° (WNW) 04:47:10 435.225
JAS-2 02 Sep 04:41:50 04:48:33 46° 293° (WNW) 04:54:26 435.910
ITAMSAT 1 02 Sep 04:50:06 04:53:45 19° 298° (WNW) 04:57:15 435.822/435.867
HORYU 2 02 Sep 04:51:09 04:55:38 83° 103° (ESE) 05:00:04 437.375
PHONESAT 2.4 02 Sep 04:53:18 04:55:26 16° 153° (SSE) 04:57:37 2401.200-2431.200
Cosmos 2499 02 Sep 05:09:02 05:17:26 60° 284° (WNW) 05:26:13 435.465 / 435.565
GONETS M04 02 Sep 05:18:02 05:23:43 18° 303° (WNW) 05:28:58
VERMONT LUNAR 02 Sep 05:21:10 05:24:05 51° 180° (S) 05:26:59 437.305
CUTE-I 02 Sep 05:44:57 05:47:10 13° 87° (E) 05:49:43 437.470
MOZHAYETS 4 02 Sep 05:51:14 05:53:03 12° 273° (W) 05:54:35
PRISM 02 Sep 06:00:52 06:03:18 16° 65° (ENE) 06:05:53 437.425
O/OREOS (USA 219) 02 Sep 06:04:15 06:06:53 15° 260° (W) 06:09:19 437.305
AO-7 02 Sep 06:04:15 06:12:05 47° 298° (WNW) 06:19:48 29.400- 29.500
CUBESAT XI-V 02 Sep 06:08:09 06:12:45 77° 258° (WSW) 06:17:22 437.345
PHONESAT 2.4 02 Sep 06:29:36 06:32:51 43° 168° (SSE) 06:36:06 2401.200-2431.200
HORYU 2 02 Sep 06:30:08 06:31:40 11° 299° (WNW) 06:33:00 437.375
STRAND 1 02 Sep 06:30:39 06:35:34 52° 71° (ENE) 06:40:31 437.568
Cubesat XI-IV 02 Sep 06:38:18 06:43:19 41° 98° (E) 06:48:21 437.490
YUBILEINY 02 Sep 06:42:17 06:49:01 24° 62° (ENE) 06:56:01 435.215
VERMONT LUNAR 02 Sep 06:57:34 07:00:16 30° 196° (SSW) 07:02:56 437.305
Cosmos 2499 02 Sep 07:08:57 07:13:02 13° 309° (NW) 07:16:36 435.465 / 435.565
CUTE-I 02 Sep 07:22:40 07:28:01 82° 286° (WNW) 07:33:21 437.470
Cosmos 2491 02 Sep 07:33:40 07:39:35 22° 80° (E) 07:45:54 435.465 / 435.565
PRISM 02 Sep 07:34:27 07:38:24 46° 261° (W) 07:42:21 437.425
BRITE-PL 02 Sep 07:35:43 07:40:36 32° 94° (E) 07:45:41 437.365/2234.400
HO-68 02 Sep 07:48:16 07:51:50 15° 85° (E) 07:55:50 435.675
SO-50 02 Sep 07:53:37 07:56:48 17° 34° (NE) 08:00:02 436.795
GOMX 1 02 Sep 07:57:30 08:02:14 30° 93° (E) 08:07:04 467.674
AIST 1 02 Sep 07:57:33 08:01:45 65° 96° (E) 08:05:59
AO-7 02 Sep 08:00:19 08:02:58 12° 319° (NW) 08:05:11 29.400- 29.500
DOVE 4 02 Sep 08:04:32 08:08:29 21° 90° (E) 08:12:33 437.250
PHONESAT 2.4 02 Sep 08:07:12 08:10:31 53° 185° (S) 08:13:51 2401.200-2431.200
Cosmos 2504 02 Sep 08:08:46 08:09:40 10° 49° (NE) 08:11:12 435.465 / 435.565
STRAND 1 02 Sep 08:11:23 08:15:08 20° 269° (W) 08:18:44 437.568
ISS 02 Sep 08:13:47 08:16:47 35° 139° (SE) 08:19:49 145.825
CUTE 1.7 + AOD 2 02 Sep 08:17:09 08:19:29 15° 89° (E) 08:22:00 437.475
Cubesat XI-IV 02 Sep 08:18:46 08:23:16 28° 295° (WNW) 08:27:41 437.490
CANX-2 02 Sep 08:30:36 08:33:59 23° 93° (E) 08:37:24 2200.000
YUBILEINY 02 Sep 08:38:08 08:47:01 78° 264° (W) 08:55:46 435.215
CINEMA 3 02 Sep 08:39:35 08:43:05 19° 89° (E) 08:46:40 145.822/145.860
SEEDS 02 Sep 08:49:16 08:52:47 26° 94° (E) 08:56:21 437.485
UNISAT 6 02 Sep 08:52:45 08:53:57 11° 60° (ENE) 08:55:24 437.425
Oscar 11 02 Sep 09:04:51 09:06:12 11° 87° (E) 09:07:47 145.826/435.025
CUTE-I 02 Sep 09:05:08 09:07:21 12° 302° (WNW) 09:09:20 437.470
COMPASS 1 02 Sep 09:08:28 09:12:13 33° 96° (E) 09:15:59 437.405
BRITE-PL 02 Sep 09:14:02 09:19:09 39° 290° (WNW) 09:24:21 437.365/2234.400
AAUSAT CUBESAT 2 02 Sep 09:17:17 09:21:04 35° 97° (E) 09:24:52 437.432
TIGRISAT 02 Sep 09:18:24 09:21:38 19° 65° (ENE) 09:25:00 435.000
CUSAT 1 02 Sep 09:24:57 09:31:01 25° 63° (ENE) 09:37:39 437.405
AUBIESAT-1 02 Sep 09:25:36 09:29:25 26° 62° (ENE) 09:33:14 437.475
Cosmos 2491 02 Sep 09:26:50 09:35:33 80° 279° (W) 09:44:20 435.465 / 435.565
DELFI C3 02 Sep 09:31:45 09:33:45 14° 89° (E) 09:35:56 145.870
M-CUBED/EXP-1 PRIME 02 Sep 09:31:56 09:36:13 34° 64° (ENE) 09:40:27 437.505
SO-50 02 Sep 09:33:10 09:38:09 83° 54° (NE) 09:43:00 436.795
HO-68 02 Sep 09:33:32 09:40:47 83° 105° (ESE) 09:48:00 435.675
ANTELSAT 02 Sep 09:35:18 09:39:16 28° 68° (ENE) 09:43:19 437.575/2403.000
GOMX 1 02 Sep 09:35:20 09:40:25 40° 290° (WNW) 09:45:28 467.674
AIST 1 02 Sep 09:38:27 09:39:59 11° 295° (WNW) 09:41:18
DOVE 4 02 Sep 09:41:22 09:46:33 52° 288° (WNW) 09:51:38 437.250
POLYITAN 1 02 Sep 09:43:29 09:45:04 12° 62° (ENE) 09:46:52 437.675
DUCHIFAT 1 02 Sep 09:44:44 09:46:04 12° 62° (ENE) 09:47:36 145.980
PHONESAT 2.4 02 Sep 09:45:11 09:48:06 26° 201° (SSW) 09:50:58 2401.200-2431.200
POPSAT HIP 1 02 Sep 09:45:22 09:47:01 12° 62° (ENE) 09:48:53 437.405
ZACube-1 02 Sep 09:49:36 09:53:14 24° 93° (E) 09:56:51 437.345
ISS 02 Sep 09:50:09 09:53:12 35° 337° (NNW) 09:56:15 145.825
CUTE 1.7 + AOD 2 02 Sep 09:51:39 09:55:45 48° 287° (WNW) 09:59:48 437.475
PCSat 02 Sep 09:54:03 09:59:02 36° 49° (NE) 10:04:01 145.827
FUNcube-1 02 Sep 09:54:12 09:57:56 26° 93° (E) 10:01:39 145.935
CUBEBUG 2 02 Sep 09:55:47 10:00:20 49° 99° (E) 10:04:44 437.445
Cosmos 2504 02 Sep 09:56:20 10:04:34 52° 74° (ENE) 10:12:21 435.465 / 435.565
UWE-3 02 Sep 09:59:34 10:03:55 41° 97° (E) 10:08:08 435.000/436.395/437.385
NANOSAT C BR1 02 Sep 10:01:14 10:04:01 18° 65° (ENE) 10:06:56 145.865
QB50P2 02 Sep 10:01:20 10:04:16 19° 66° (ENE) 10:07:19 145.880/145.840
DANDE 02 Sep 10:03:35 10:10:11 32° 68° (ENE) 10:17:39 436.750
CANX-2 02 Sep 10:06:12 10:09:57 31° 290° (WNW) 10:13:38 2200.000
QB50P1 02 Sep 10:14:51 10:18:16 24° 68° (ENE) 10:21:48 145.935-145.965
CINEMA 3 02 Sep 10:15:45 10:20:37 51° 288° (WNW) 10:25:19 145.822/145.860
HUMSAT D 02 Sep 10:21:54 10:25:00 20° 92° (E) 10:28:11 437.325/437.525
SEEDS 02 Sep 10:24:58 10:28:32 27° 291° (WNW) 10:32:02 437.485
UNISAT 6 02 Sep 10:25:20 10:30:02 87° 81° (E) 10:34:48 437.425
DX 1 02 Sep 10:34:34 10:37:09 16° 90° (E) 10:39:54 434.975-435.025
YUBILEINY 02 Sep 10:37:37 10:42:31 15° 284° (WNW) 10:46:50 435.215
Oscar 11 02 Sep 10:38:37 10:42:55 66° 286° (WNW) 10:47:10 145.826/435.025
UKube-1 02 Sep 10:44:23 10:47:16 18° 91° (E) 10:50:18 .
COMPASS 1 02 Sep 10:44:29 10:47:43 22° 292° (WNW) 10:50:50 437.405
AAUSAT CUBESAT 2 02 Sep 10:53:21 10:56:28 20° 293° (WNW) 10:59:29 437.432
TIGRISAT 02 Sep 10:53:27 10:58:01 51° 261° (W) 11:02:38 435.000
ESTCUBE 1 02 Sep 10:56:13 10:58:18 13° 88° (E) 11:00:38 437.505/2401.250
AUBIESAT-1 02 Sep 10:59:27 11:03:55 40° 257° (WSW) 11:08:17 437.475
CUBEBUG 1 02 Sep 10:59:40 11:01:02 12° 87° (E) 11:02:41 437.445
AISAT 02 Sep 11:02:32 11:05:56 21° 93° (E) 11:09:24 437.250
DELFI C3 02 Sep 11:05:17 11:09:08 47° 287° (WNW) 11:12:57 145.870
CUSAT 1 02 Sep 11:06:30 11:14:23 81° 262° (W) 11:22:37 437.405
M-CUBED/EXP-1 PRIME 02 Sep 11:06:42 11:10:57 30° 260° (W) 11:15:04 437.505
ANTELSAT 02 Sep 11:11:42 11:15:57 33° 265° (W) 11:20:11 437.575/2403.000
SO-50 02 Sep 11:15:46 11:18:05 13° 252° (WSW) 11:20:07 436.795
POLYITAN 1 02 Sep 11:16:10 11:20:26 72° 258° (WSW) 11:24:45 437.675
DUCHIFAT 1 02 Sep 11:17:05 11:21:19 75° 258° (WSW) 11:25:36 145.980
BUGSAT 1 02 Sep 11:17:37 11:21:40 69° 75° (ENE) 11:25:48 437.445
POPSAT HIP 1 02 Sep 11:18:07 11:22:22 70° 259° (W) 11:26:40 437.405
HO-68 02 Sep 11:22:30 11:27:48 22° 304° (NW) 11:32:51 435.675
ZACube-1 02 Sep 11:25:36 11:29:40 33° 290° (WNW) 11:33:35 437.345
ISS 02 Sep 11:27:55 11:30:16 18° 356° (N) 11:32:38 145.825
Cosmos 2491 02 Sep 11:28:30 11:34:11 18° 303° (WNW) 11:39:26 435.465 / 435.565
VELOX 1 02 Sep 11:29:42 11:33:53 38° 98° (E) 11:38:05 145.980
FUNcube-1 02 Sep 11:30:18 11:34:16 31° 291° (WNW) 11:38:05 145.935
50 SAT 02 Sep 11:32:25 11:36:12 50° 99° (E) 11:39:56 437.505
GONETS M04 02 Sep 11:32:29 11:34:30 11° 49° (NE) 11:37:12
CUBEBUG 2 02 Sep 11:33:17 11:36:39 19° 295° (WNW) 11:39:49 437.445
NANOSAT C BR1 02 Sep 11:35:27 11:39:31 45° 261° (W) 11:43:38 145.865
QB50P2 02 Sep 11:35:48 11:39:52 42° 262° (W) 11:43:58 145.880/145.840
UWE-3 02 Sep 11:36:39 11:40:09 21° 294° (WNW) 11:43:30 435.000/436.395/437.385
PCSat 02 Sep 11:37:30 11:42:28 37° 248° (WSW) 11:47:23 145.827
DANDE 02 Sep 11:46:09 11:53:44 63° 264° (W) 12:02:06 436.750
Cosmos 2504 02 Sep 11:49:00 11:56:31 35° 275° (W) 12:03:28 435.465 / 435.565
Oscar 19 02 Sep 11:49:33 11:52:12 15° 60° (ENE) 11:55:04 437.125/150
QB50P1 02 Sep 11:50:13 11:54:01 31° 264° (W) 11:57:49 145.935-145.965
HUMSAT D 02 Sep 11:56:59 12:00:53 35° 289° (WNW) 12:04:41 437.325/437.525
DX 1 02 Sep 12:09:28 12:13:45 50° 288° (WNW) 12:17:59 434.975-435.025
UKube-1 02 Sep 12:19:31 12:23:40 43° 289° (WNW) 12:27:46 .
SPROUT 02 Sep 12:22:47 12:26:32 28° 95° (E) 12:30:19 437.525
ESTCUBE 1 02 Sep 12:31:12 12:35:39 62° 286° (WNW) 12:40:06 437.505/2401.250
CUBEBUG 1 02 Sep 12:33:32 12:37:57 70° 286° (WNW) 12:42:21 437.445
AISAT 02 Sep 12:38:28 12:42:39 38° 290° (WNW) 12:46:48 437.250
Gurwin Techsat 1B 02 Sep 12:43:50 12:46:40 15° 60° (ENE) 12:49:43 435.225
CUSAT 1 02 Sep 12:51:00 12:56:07 18° 277° (W) 13:00:56 437.405
ITAMSAT 1 02 Sep 12:52:10 12:54:46 14° 60° (ENE) 12:57:36 435.822/435.867
ISS 02 Sep 13:04:41 13:07:27 25° 17° (NNE) 13:10:14 145.825
VELOX 1 02 Sep 13:06:44 13:10:13 22° 294° (WNW) 13:13:36 145.980
50 SAT 02 Sep 13:08:21 13:10:20 13° 295° (WNW) 13:12:08 437.505
Cosmos 2499 02 Sep 13:09:29 13:12:20 12° 50° (NE) 13:15:43 435.465 / 435.565
JAS-2 02 Sep 13:09:58 13:15:23 22° 57° (ENE) 13:21:03 435.910
TISAT 1 02 Sep 13:19:40 13:23:56 67° 102° (ESE) 13:28:11 437.305
BEESAT 02 Sep 13:22:04 13:23:52 12° 87° (E) 13:25:55 436.000
AO-7 02 Sep 13:23:36 13:27:57 16° 46° (NE) 13:32:41 29.400- 29.500
GONETS M04 02 Sep 13:25:26 13:34:01 55° 75° (ENE) 13:42:40
Oscar 19 02 Sep 13:25:46 13:30:56 82° 255° (WSW) 13:36:11 437.125/150
DANDE 02 Sep 13:32:33 13:35:58 13° 279° (W) 13:38:52 436.750
SWISSCUBE 02 Sep 13:46:42 13:50:31 24° 93° (E) 13:54:25 437.505
SPROUT 02 Sep 13:58:51 14:02:33 27° 291° (WNW) 14:06:11 437.525
HORYU 2 02 Sep 14:18:20 14:18:30 10° 60° (ENE) 14:18:54 437.375
Gurwin Techsat 1B 02 Sep 14:20:44 14:26:02 81° 255° (WSW) 14:31:24 435.225
ITUPSAT 1 02 Sep 14:25:33 14:30:12 53° 100° (E) 14:34:52 437.325
ITAMSAT 1 02 Sep 14:28:29 14:33:40 82° 256° (WSW) 14:38:53 435.822/435.867
BEESAT 3 02 Sep 14:36:59 14:40:59 61° 121° (ESE) 14:45:02 437.485
ISS 02 Sep 14:40:53 14:44:08 73° 216° (SW) 14:47:22 145.825
BEESAT 2 02 Sep 14:51:43 14:55:46 66° 121° (ESE) 14:59:52 435.950
JAS-2 02 Sep 14:51:44 14:59:29 88° 78° (ENE) 15:07:24 435.910
TISAT 1 02 Sep 14:57:12 14:59:12 13° 297° (WNW) 15:01:01 437.305
BEESAT 02 Sep 14:57:34 15:02:20 74° 285° (WNW) 15:07:05 436.000
Cosmos 2499 02 Sep 14:59:30 15:08:03 58° 75° (ENE) 15:16:01 435.465 / 435.565
RS-15 02 Sep 15:02:15 15:11:42 37° 108° (ESE) 15:21:42 29.354- 29.394
AO-7 02 Sep 15:11:08 15:19:18 63° 67° (ENE) 15:27:31 29.400- 29.500
STARS 02 Sep 15:17:05 15:20:08 18° 91° (E) 15:23:17 437.465
GONETS M04 02 Sep 15:22:51 15:30:34 34° 275° (W) 15:38:06
SWISSCUBE 02 Sep 15:24:06 15:28:30 37° 291° (WNW) 15:32:51 437.505
KKS-1 02 Sep 15:39:22 15:43:47 52° 100° (E) 15:48:10 437.445
AIST 2 02 Sep 15:40:30 15:44:30 43° 118° (ESE) 15:48:34 435.215
